Location: Newark
(52.1031°N, 9.3600°E)
Time: 11:50:01
(UTC+00:00)

nSIGHT-1 - Pass Details

Date: 16 December 2019
Orbit: 316 x 318 km, 51.6° (Epoch: 17 January)

Event Time Altitude Azimuth Distance (km) Brightness Sun altitude
Exits shadow 04:51:54 29° 106° (ESE) 612 ? -22.1°
Drops below altitude 10° 04:53:32 10° 86° (E) 1,223 ? -21.8°
Sets 04:55:32 0° 80° (E) 2,055 ? -21.5°
